Podgorica current weather conditions

sailwx.info

Wind from 030 at 9 knots

Air temperature 8.0° C
Visibility: greater than 5.4 NM
Dewpoint -3.0° C

Last reported at 2015-Jan-28 16:30 UTC.
Time now 2015-Jan-28 18:17 UTC

Location: N 42°22' E 019°15'.
View on Google Maps.

See reports from other nearby stations

  
Tides and Currents Weather Stations Pressure Air Temp Water Temp Dewpoint Dewpoint Depression Visibility Wind Speed Wind Dir Waves Ship Positions
date/time (UTC)wind fromknots sea level pressurealtimeterstation pressurevisibilityair tempwater tempwave heightnotes
2015-Jan-28 17:30 030 4 5.4 6.0
2015-Jan-28 17:00 030 9 5.4 7.0
2015-Jan-28 16:30 030 9 5.4 8.0
2015-Jan-28 16:00 040 7 5.4 8.0
2015-Jan-28 15:30 080 4 5.4 9.0
2015-Jan-28 15:00 080 3 5.4 9.0
2015-Jan-28 14:30 5.410.0
2015-Jan-28 14:00 5.410.0
2015-Jan-28 13:30 5.410.0
2015-Jan-28 13:00 060 5 5.410.0
2015-Jan-28 12:30 050 7 5.410.0
2015-Jan-28 12:00 070 3 5.410.0
2015-Jan-28 11:30 130 3 5.410.0
2015-Jan-28 11:00 160 5 5.4 9.0
2015-Jan-28 10:30 160 5 5.4 9.0
2015-Jan-28 10:00 140 3 5.410.0
2015-Jan-28 09:30 110 4 5.4 9.0
2015-Jan-28 09:00 070 4 5.4 8.0
2015-Jan-28 08:30 360 7 5.4 8.0
2015-Jan-28 08:00 360 5 5.4 7.0
2015-Jan-28 07:30 020 4 5.4 6.0
2015-Jan-28 07:00 030 3 5.4 6.0
2015-Jan-28 06:30 020 5 5.4 6.0
2015-Jan-28 06:00 350 5 5.4 5.0
2015-Jan-28 05:30 350 7 5.4 6.0
2015-Jan-28 05:00 040 4 5.4 6.0
2015-Jan-28 04:30 060 3 5.4 6.0
2015-Jan-28 04:00 020 4 5.4 6.0
2015-Jan-28 03:30 040 5 5.4 6.0
2015-Jan-28 03:00 030 7 5.4 6.0
2015-Jan-28 02:30 050 8 5.4 6.0 Light rain.
2015-Jan-28 02:00 360 11 5.4 6.0 Light rain.
2015-Jan-28 01:30 300 4 5.4 6.0
2015-Jan-28 01:00 5.4 6.0
2015-Jan-28 00:30 5.4 6.0
2015-Jan-28 00:00 5.4 6.0 Light rain.
2015-Jan-27 23:30 290 1 5.4 6.0
2015-Jan-27 23:00 010 3 5.4 6.0
2015-Jan-27 22:30 5.4 6.0
2015-Jan-27 22:00 320 3 5.4 6.0
2015-Jan-27 21:30 320 3 5.4 6.0 Light rain.
2015-Jan-27 21:00 5.4 6.0 Light rain.
2015-Jan-27 20:30 010 3 5.4 6.0 Light rain.
2015-Jan-27 20:00 5.4 6.0
2015-Jan-27 19:30 5.4 6.0 Light rain.
2015-Jan-27 19:00 5.4 6.0 Light rain.
2015-Jan-27 18:30 5.4 6.0 Light rain.
2015-Jan-27 18:00 5.4 6.0
2015-Jan-27 17:30 120 2 5.4 6.0
2015-Jan-27 17:00 150 2 5.4 6.0
2015-Jan-27 16:30 170 1 5.4 6.0
2015-Jan-27 16:00 150 2 5.4 6.0
2015-Jan-27 15:30 170 1 5.4 8.0
2015-Jan-27 15:00 160 3 5.4 8.0
2015-Jan-27 14:30 120 3 5.4 8.0
2015-Jan-27 14:00 5.4 8.0
2015-Jan-27 13:30 160 3 5.4 8.0
2015-Jan-27 13:00 5.4 7.0
2015-Jan-27 12:30 140 4 5.4 8.0
2015-Jan-27 12:00 160 5 5.4 8.0
2015-Jan-27 11:30 5.4 9.0
2015-Jan-27 11:00 200 1 5.4 9.0
2015-Jan-27 10:30 5.4 9.0
2015-Jan-27 10:00 5.4 8.0
2015-Jan-27 09:30 5.4 8.0
2015-Jan-27 09:00 300 4 5.4 8.0
2015-Jan-27 08:30 340 5 5.4 8.0
2015-Jan-27 08:00 340 5 5.4 6.0
2015-Jan-27 07:30 5.4 2.0
2015-Jan-27 07:00 100 2 5.4 2.0
2015-Jan-27 06:30 5.4 2.0
2015-Jan-27 06:00 5.4 2.0
2015-Jan-27 05:30 5.4 3.0
2015-Jan-27 05:00 5.4 3.0
2015-Jan-27 04:30 5.4 3.0
2015-Jan-27 04:00 5.4 3.0
2015-Jan-27 03:30 030 4 5.4 3.0
2015-Jan-27 03:00 340 5 5.4 4.0
2015-Jan-27 02:30 340 5 5.4 4.0
2015-Jan-27 02:00 360 4 5.4 3.0
2015-Jan-27 01:30 320 5 5.4 3.0
2015-Jan-27 01:00 340 3 5.4 4.0
2015-Jan-27 00:30 330 7 5.4 5.0
2015-Jan-27 00:00 340 5 5.4 4.0
2015-Jan-26 23:30 340 9 5.4 6.0
2015-Jan-26 23:00 350 6 5.4 5.0
2015-Jan-26 22:30 360 8 5.4 6.0
2015-Jan-26 22:00 350 8 5.4 6.0
2015-Jan-26 21:30 010 7 5.4 7.0
2015-Jan-26 21:00 360 10 5.4 7.0
2015-Jan-26 20:30 020 10 5.4 7.0
2015-Jan-26 20:00 030 8 5.4 7.0
2015-Jan-26 19:30 030 7 5.4 7.0
2015-Jan-26 19:00 020 8 5.4 7.0
2015-Jan-26 18:30 010 10 5.4 8.0
2015-Jan-26 18:00 020 9 5.4 8.0